Погода в Карсуне

Россия / Ульяновская область     54°12′02″N   46°58′50″E
темп.,
°C
ветер,
м/с
пор.,
м/с
влажн.,
%
обл.,
%
осадки,
мм/ч
давл.,
гПа
погр.,
м
14 апреля, ср
ср1401:00+8юв22635 0.0 103010
04:00+7юв22693 0.0 103010
07:00+7юв22765 0.0 102915
10:00+13юв47581 0.0 1028329
13:00+17юв68595 0.0 1026891
16:00+18юв68570 0.0 10251158
19:00+16юв59712 0.0 1023275
22:00+12юв33885 0.0 102436
15 апреля, чт
чт1501:00+10юв22890 0.0 102212
04:00+9юв22912 0.0 102212
07:00+8юв229226 0.0 102121
10:00+13юв2369100 0.0 1020353
13:00+17ююв234788 0.0 10191425
16:00+18ю123795 0.0 10181495
19:00+15ссз22555 0.0 101821
22:00+12ссв22670 0.0 101815
16 апреля, пт
пт1601:00+10св22740 0.0 101810
04:00+9св22800 0.0 101911
07:00+8св22820 0.0 102028
10:00+12св57711 0.0 1020490
13:00+14св67684 0.0 1021712
16:00+14св676213 0.0 1021905
19:00+11св69735 0.0 1022519
22:00+8св5107818 0.0 1024367
17 апреля, сб
сб1701:00+6св410796 0.0 1024306
04:00+5св4108516 0.0 1025311
07:00+5св51179100 0.0 1026460
10:00+7всв696180 0.0 1026625
13:00+11всв78425 0.0 1026999
16:00+12всв67320 0.0 10261175
19:00+9всв59435 0.0 1027380
22:00+6всв310565 0.0 1028200
18 апреля, вс
вс1801:00+4св35642 0.0 102878
04:00+3св34750 0.0 102855
07:00+3св26750 0.0 1029157
10:00+9всв46565 0.0 1028709
13:00+11всв5646100 0.0 10281523
16:00+11всв6743100 0.0 10281539
19:00+10всв475369 0.0 1028284
22:00+7всв396473 0.0 1030228